[[{"header":{"parameterUnit":"m.s-1","parameterCategory":2,"la1":30.2992,"la2":30.254,"lo1":-89.0895,"lo2":-89.0443,"dy":0.0025,"dx":0.0025,"nx":19,"ny":19,"refTime":"2026-05-22T21:00:00:Z","depth":"0","parameterNumber":2,"parameterNumberName":"U-component_of_CURRENTS"},"data":[0,0,0,-0.1039,-0.104,-0.1104,-0.1105,-0.126,-0.1261,0,0,0,0,0,0,0,0,0,0,0,-0.1013,-0.1013,-0.1039,-0.104,-0.1104,-0.1105,-0.126,-0.1261,0,0,0,0,0,0,0,0,0,0,0,-0.1013,-0.1013,-0.1013,-0.104,-0.1104,-0.1105,-0.1259,-0.1196,0,0,0,0,0,0,0,0,0,0,-0.1126,-0.1093,-0.1013,-0.1013,-0.104,-0.1104,-0.1105,-0.1193,-0.12,-0.1247,0,-0.1243,0,-0.1254,-0.1272,-0.1273,0,0,0,-0.1054,-0.1086,-0.1095,-0.1013,-0.1041,-0.1104,-0.1079,-0.1196,-0.1205,-0.1258,-0.1245,-0.1251,-0.1256,-0.1273,-0.1274,-0.1356,-0.1356,0,0,-0.1051,-0.104,-0.1089,-0.11,-0.1041,-0.1077,-0.1081,-0.1201,-0.121,-0.1246,-0.1254,-0.1259,-0.1274,-0.1276,-0.1356,-0.1356,0,0,0,-0.1031,-0.1038,-0.1043,-0.1094,-0.1098,-0.1079,-0.1083,-0.1205,-0.1203,-0.1256,-0.1261,-0.1275,-0.1277,-0.1357,-0.1356,-0.1246,0,0,0,-0.103,-0.1025,-0.104,-0.1037,-0.1095,-0.1144,-0.1085,-0.1195,-0.1209,-0.126,-0.1275,-0.1279,-0.1357,-0.1356,-0.125,-0.1221,0,0,0,-0.1013,-0.1024,-0.1023,-0.1036,-0.1057,-0.1142,-0.1148,-0.1198,-0.1212,-0.1273,-0.1279,-0.1357,-0.1357,-0.1253,-0.1227,-0.1206,0,0,0,-0.1012,-0.1005,-0.1023,-0.1016,-0.1056,-0.1073,-0.1148,-0.1176,-0.1218,-0.1276,-0.1357,-0.1356,-0.1254,-0.123,-0.1209,-0.1231,-0.1219,0,0,-0.1002,-0.1004,-0.0997,-0.1014,-0.1012,-0.1066,-0.1072,-0.1156,-0.1227,-0.1327,-0.1328,-0.1248,-0.1227,-0.1206,-0.1189,-0.1178,0,0,0,-0.0992,-0.0989,-0.099,-0.0993,-0.101,-0.1029,-0.1098,-0.1127,-0.1192,-0.1247,-0.1265,-0.1256,-0.1246,-0.1266,-0.1257,-0.1312,-0.1353,-0.1353,-0.1353,-0.1006,-0.099,-0.0979,-0.0968,-0.0976,-0.1007,-0.1017,-0.1077,-0.1147,-0.1148,-0.1176,-0.1103,-0.1123,-0.1117,-0.1172,-0.118,-0.1179,-0.1179,-0.1179,-0.1,-0.0989,-0.0968,-0.0949,-0.0949,-0.0956,-0.0978,-0.0998,-0.1027,-0.1092,-0.1087,-0.1163,-0.1101,-0.1163,-0.1172,-0.1173,-0.1174,-0.1175,-0.1175,-0.1019,-0.1004,-0.0985,-0.095,-0.0931,-0.0933,-0.0921,-0.0932,-0.0958,-0.0935,-0.1011,-0.1014,-0.1063,-0.0947,-0.0946,-0.0946,-0.0946,-0.0946,-0.0945,-0.1045,-0.1018,-0.0995,-0.0955,-0.0932,-0.0911,-0.0898,-0.0895,-0.0901,-0.0916,-0.0917,-0.1049,-0.1034,-0.1036,-0.0942,-0.0942,-0.0943,-0.0943,-0.0943,-0.1045,-0.104,-0.1002,-0.0976,-0.092,-0.0895,-0.0893,-0.0891,-0.0882,-0.0883,-0.0963,-0.0913,-0.0963,-0.0972,-0.0974,-0.0869,-0.0869,-0.0869,-0.0869,-0.1054,-0.1046,-0.0995,-0.0951,-0.0912,-0.0883,-0.0893,-0.0915,-0.0944,-0.0957,-0.0961,-0.101,-0.1011,-0.1068,-0.1075,-0.1082,-0.1006,-0.1006,-0.1007,-0.1046,-0.1031,-0.0992,-0.0944,-0.0895,-0.0871,-0.0887,-0.0974,-0.1016,-0.1017,-0.1027,-0.1021,-0.11,-0.1097,-0.1196,-0.1201,-0.1218,0,0]},{"header":{"parameterUnit":"m.s-1","parameterCategory":2,"la1":30.2992,"la2":30.254,"lo1":-89.0895,"lo2":-89.0443,"dy":0.0025,"dx":0.0025,"nx":19,"ny":19,"refTime":"2026-05-22T21:00:00:Z","depth":"0","parameterNumber":3,"parameterNumberName":"V-component_of_CURRENTS"},"data":[0,0,0,-0.0517,-0.0517,-0.0543,-0.0543,-0.0545,-0.0545,0,0,0,0,0,0,0,0,0,0,0,-0.0505,-0.0506,-0.0517,-0.0517,-0.0543,-0.0543,-0.0545,-0.0545,0,0,0,0,0,0,0,0,0,0,0,-0.0505,-0.0506,-0.0506,-0.0518,-0.0543,-0.0543,-0.0545,-0.0532,0,0,0,0,0,0,0,0,0,0,-0.051,-0.0502,-0.0506,-0.0506,-0.0518,-0.0543,-0.0543,-0.0532,-0.0533,-0.0527,0,-0.0536,0,-0.0545,-0.0546,-0.0546,0,0,0,-0.0511,-0.0501,-0.0515,-0.0506,-0.0518,-0.0543,-0.053,-0.0532,-0.0534,-0.0529,-0.0537,-0.0537,-0.0545,-0.0546,-0.0546,-0.0553,-0.0553,0,0,-0.0509,-0.0502,-0.0514,-0.0516,-0.0531,-0.0529,-0.053,-0.0534,-0.0533,-0.0537,-0.0537,-0.0545,-0.0546,-0.0546,-0.0553,-0.0553,0,0,0,-0.051,-0.0501,-0.0515,-0.0515,-0.0525,-0.053,-0.0532,-0.0533,-0.0539,-0.0537,-0.0545,-0.0546,-0.0546,-0.0553,-0.0553,-0.0555,0,0,0,-0.0509,-0.0502,-0.0514,-0.0509,-0.0525,-0.0532,-0.053,-0.0539,-0.054,-0.0545,-0.0546,-0.0546,-0.0553,-0.0553,-0.0555,-0.0543,0,0,0,-0.0503,-0.0501,-0.0508,-0.0509,-0.0524,-0.0533,-0.0539,-0.0539,-0.0544,-0.0546,-0.0546,-0.0553,-0.0553,-0.0555,-0.0543,-0.0543,0,0,0,-0.049,-0.0503,-0.0507,-0.0519,-0.0524,-0.0542,-0.0539,-0.0547,-0.0549,-0.0546,-0.0553,-0.0553,-0.0555,-0.0543,-0.0543,-0.0588,-0.0591,0,0,-0.0499,-0.0504,-0.051,-0.0515,-0.0531,-0.0537,-0.0549,-0.055,-0.0549,-0.0548,-0.0549,-0.0555,-0.0543,-0.0543,-0.0597,-0.06,0,0,0,-0.0508,-0.0516,-0.052,-0.053,-0.0541,-0.0547,-0.0555,-0.0557,-0.0558,-0.0553,-0.0558,-0.055,-0.055,-0.0577,-0.058,-0.0549,-0.0554,-0.0554,-0.0554,-0.0512,-0.0518,-0.0531,-0.0542,-0.0548,-0.0555,-0.0556,-0.056,-0.0563,-0.0565,-0.0555,-0.0557,-0.0587,-0.0589,-0.0557,-0.0564,-0.0564,-0.0564,-0.0564,-0.0531,-0.0537,-0.0542,-0.0559,-0.0558,-0.0567,-0.0563,-0.0562,-0.0556,-0.056,-0.056,-0.0581,-0.0592,-0.0557,-0.0565,-0.0565,-0.0565,-0.0565,-0.0565,-0.0533,-0.0536,-0.0551,-0.057,-0.0577,-0.0577,-0.0583,-0.0569,-0.0554,-0.0547,-0.058,-0.0581,-0.0547,-0.0552,-0.0552,-0.0552,-0.0552,-0.0552,-0.0552,-0.0526,-0.0541,-0.0562,-0.0583,-0.0595,-0.0605,-0.0594,-0.0591,-0.0584,-0.0577,-0.0577,-0.0547,-0.0553,-0.055,-0.0551,-0.0551,-0.0552,-0.0552,-0.0552,-0.0522,-0.0533,-0.0569,-0.0589,-0.0623,-0.0661,-0.0652,-0.0661,-0.0639,-0.0642,-0.0582,-0.0598,-0.0598,-0.0597,-0.0595,-0.0608,-0.0608,-0.0608,-0.0608,-0.0511,-0.0523,-0.0573,-0.0612,-0.0648,-0.0684,-0.0754,-0.0775,-0.0698,-0.066,-0.0586,-0.0598,-0.0597,-0.0597,-0.0596,-0.0594,-0.0606,-0.0606,-0.0606,-0.0506,-0.0531,-0.0563,-0.0614,-0.066,-0.0721,-0.082,-0.0908,-0.0779,-0.0599,-0.053,-0.053,-0.0541,-0.0542,-0.0538,-0.0539,-0.0533,0,0]}],[{"header":{"parameterUnit":"m.s-1","parameterCategory":2,"la1":30.2992,"la2":30.254,"lo1":-89.0895,"lo2":-89.0443,"dy":0.0025,"dx":0.0025,"nx":19,"ny":19,"refTime":"2026-05-22T21:00:00:Z","depth":"2","parameterNumber":2,"parameterNumberName":"U-component_of_CURRENTS"},"data":[0,0,0,-0.1855,-0.1857,-0.1922,-0.1922,-0.1948,-0.1948,0,0,0,0,0,0,0,0,0,0,0,-0.1818,-0.1818,-0.1855,-0.1857,-0.1922,-0.1922,-0.1948,-0.1948,0,0,0,0,0,0,0,0,0,0,0,-0.1818,-0.1818,-0.1818,-0.1857,-0.1922,-0.1922,-0.1948,-0.1914,0,0,0,0,0,0,0,0,0,0,-0.1858,-0.182,-0.1818,-0.1818,-0.1857,-0.1922,-0.1922,-0.1913,-0.1916,-0.1901,0,-0.1901,0,-0.1929,-0.1948,-0.1948,0,0,0,-0.1859,-0.1817,-0.1848,-0.1818,-0.1858,-0.1922,-0.1893,-0.1915,-0.1918,-0.1905,-0.1902,-0.1904,-0.193,-0.1948,-0.1948,-0.2006,-0.2006,0,0,-0.1855,-0.182,-0.1845,-0.1849,-0.186,-0.1891,-0.1895,-0.1918,-0.1905,-0.1902,-0.1905,-0.193,-0.1948,-0.1948,-0.2005,-0.2006,0,0,0,-0.1843,-0.1817,-0.1848,-0.1847,-0.1866,-0.1893,-0.1898,-0.1904,-0.1918,-0.1906,-0.193,-0.1948,-0.1949,-0.2004,-0.2005,-0.1967,0,0,0,-0.1841,-0.1811,-0.1846,-0.1824,-0.1866,-0.1892,-0.1883,-0.1916,-0.192,-0.193,-0.1948,-0.1949,-0.2004,-0.2005,-0.1967,-0.1947,0,0,0,-0.1818,-0.1808,-0.1815,-0.1822,-0.1854,-0.1893,-0.1908,-0.1918,-0.1935,-0.1948,-0.1949,-0.2003,-0.2005,-0.1966,-0.1948,-0.1938,0,0,0,-0.1783,-0.1781,-0.1813,-0.1824,-0.1853,-0.191,-0.1908,-0.194,-0.1952,-0.1948,-0.2004,-0.2005,-0.1966,-0.1948,-0.1938,-0.1762,-0.1747,0,0,-0.1767,-0.1778,-0.1791,-0.1822,-0.1872,-0.1902,-0.1946,-0.1956,-0.1971,-0.1991,-0.1993,-0.1967,-0.1948,-0.1938,-0.1846,-0.1827,0,0,0,-0.1779,-0.1785,-0.1806,-0.1841,-0.1891,-0.1931,-0.1961,-0.1972,-0.1993,-0.1986,-0.2007,-0.1997,-0.1991,-0.1887,-0.1874,-0.2012,-0.2012,-0.2012,-0.2012,-0.1694,-0.1755,-0.1782,-0.1855,-0.1889,-0.1953,-0.1975,-0.2001,-0.2005,-0.2017,-0.1995,-0.2003,-0.1894,-0.1882,-0.2032,-0.2032,-0.2032,-0.2032,-0.2032,-0.1676,-0.1686,-0.1768,-0.181,-0.187,-0.1902,-0.1972,-0.1982,-0.1999,-0.2009,-0.2004,-0.1889,-0.1864,-0.2029,-0.203,-0.203,-0.203,-0.203,-0.2031,-0.1604,-0.1617,-0.1661,-0.1729,-0.178,-0.1855,-0.1882,-0.1934,-0.196,-0.1962,-0.1851,-0.1849,-0.1953,-0.1953,-0.1953,-0.1953,-0.1953,-0.1953,-0.1953,-0.149,-0.1548,-0.1554,-0.1643,-0.1669,-0.1723,-0.1817,-0.1827,-0.1808,-0.1803,-0.1802,-0.1977,-0.1979,-0.1951,-0.1951,-0.1951,-0.1952,-0.1952,-0.1952,-0.1387,-0.1402,-0.1421,-0.1445,-0.1532,-0.1542,-0.1649,-0.1612,-0.1641,-0.1585,-0.1714,-0.1721,-0.1714,-0.1724,-0.169,-0.1623,-0.1623,-0.1623,-0.1623,-0.1281,-0.1305,-0.1296,-0.1322,-0.1372,-0.1452,-0.1369,-0.1351,-0.1389,-0.1378,-0.1389,-0.1358,-0.1376,-0.1351,-0.137,-0.133,-0.1169,-0.1169,-0.1168,-0.1201,-0.1218,-0.1178,-0.1232,-0.1296,-0.1322,-0.1209,-0.1202,-0.1198,-0.1156,-0.1374,-0.1581,-0.1564,-0.158,-0.1569,-0.1588,-0.1535,0,0]},{"header":{"parameterUnit":"m.s-1","parameterCategory":2,"la1":30.2992,"la2":30.254,"lo1":-89.0895,"lo2":-89.0443,"dy":0.0025,"dx":0.0025,"nx":19,"ny":19,"refTime":"2026-05-22T21:00:00:Z","depth":"2","parameterNumber":3,"parameterNumberName":"V-component_of_CURRENTS"},"data":[0,0,0,-0.0014,-0.0013,0.0033,0.0034,0.0158,0.0159,0,0,0,0,0,0,0,0,0,0,0,-0.0048,-0.0049,-0.0014,-0.0013,0.0033,0.0034,0.0158,0.0159,0,0,0,0,0,0,0,0,0,0,0,-0.0048,-0.0049,-0.0049,-0.0013,0.0033,0.0034,0.0158,0.0109,0,0,0,0,0,0,0,0,0,0,0.0057,0.0003,-0.0048,-0.0049,-0.0013,0.0033,0.0034,0.0106,0.0112,0.0152,0,0.0135,0,0.0156,0.0168,0.0168,0,0,0,-0.0002,-0.0002,0.002,-0.0049,-0.0012,0.0033,0.0015,0.0109,0.0116,0.0161,0.0137,0.0142,0.0158,0.0169,0.017,0.0162,0.0161,0,0,-0.0005,-0.0039,0.0015,0.0023,-0.003,0.0014,0.0017,0.0112,0.0103,0.0138,0.0145,0.016,0.017,0.0171,0.0163,0.0162,0,0,0,-0.0019,-0.0042,-0.0023,0.0018,0.0024,0.0015,0.0018,0.0098,0.0106,0.0147,0.0161,0.0171,0.0172,0.0165,0.0163,0.0016,0,0,0,-0.002,-0.005,-0.0025,-0.0044,0.0021,0.0052,0.0002,0.0099,0.0111,0.0161,0.0171,0.0173,0.0166,0.0164,0.0023,0.0009,0,0,0,-0.0045,-0.0052,-0.0054,-0.0047,-0.0028,0.005,0.0063,0.0102,0.012,0.0169,0.0174,0.0167,0.0164,0.0029,0.0017,0.0019,0,0,0,-0.0069,-0.0088,-0.0056,-0.0075,-0.0029,-0.001,0.0063,0.0071,0.0098,0.0171,0.0166,0.0163,0.0031,0.0022,0.0023,0.0088,0.0074,0,0,-0.01,-0.0094,-0.0101,-0.007,-0.0072,-0.0014,-0.0034,0.0024,0.0076,0.0144,0.0144,0.0021,0.0018,0.002,-0.0059,-0.0068,0,0,0,-0.0113,-0.0126,-0.0119,-0.0119,-0.0088,-0.0086,-0.0036,-0.0029,-0.0029,0.0081,0.001,0.0014,0.002,0.0066,0.0058,0.0151,0.0151,0.0152,0.0152,-0.0194,-0.0172,-0.0189,-0.0169,-0.0167,-0.0146,-0.0154,-0.0139,-0.0089,-0.0144,-0.0116,-0.0223,-0.0181,-0.0185,-0.0153,-0.0154,-0.0154,-0.0155,-0.0155,-0.0239,-0.0251,-0.0243,-0.0256,-0.0255,-0.0279,-0.0269,-0.0275,-0.0287,-0.0255,-0.0243,-0.0104,-0.0202,-0.0167,-0.0164,-0.0163,-0.0162,-0.0161,-0.016,-0.0289,-0.0292,-0.0305,-0.0329,-0.0369,-0.0366,-0.0379,-0.0389,-0.0386,-0.0409,-0.0292,-0.0288,-0.0253,-0.0406,-0.0406,-0.0406,-0.0406,-0.0406,-0.0406,-0.0337,-0.0341,-0.0375,-0.0395,-0.0426,-0.0448,-0.0446,-0.0424,-0.0402,-0.0403,-0.0402,-0.0305,-0.0297,-0.0265,-0.0408,-0.0408,-0.0408,-0.0408,-0.0408,-0.0387,-0.0391,-0.043,-0.046,-0.0491,-0.0499,-0.0468,-0.0403,-0.0381,-0.0353,-0.0375,-0.0375,-0.0292,-0.0283,-0.0249,-0.038,-0.038,-0.038,-0.038,-0.0423,-0.0423,-0.0476,-0.0509,-0.0521,-0.052,-0.0504,-0.0418,-0.0338,-0.0268,-0.0273,-0.0236,-0.024,-0.0149,-0.0144,-0.0104,-0.0198,-0.0197,-0.0197,-0.0447,-0.0461,-0.0501,-0.0526,-0.0542,-0.0534,-0.0564,-0.0361,-0.0034,-0.0189,-0.0233,-0.0369,-0.0326,-0.0328,-0.0192,-0.0183,-0.012,0,0]}],[{"header":{"parameterUnit":"m.s-1","parameterCategory":2,"la1":30.2992,"la2":30.254,"lo1":-89.0895,"lo2":-89.0443,"dy":0.0025,"dx":0.0025,"nx":19,"ny":19,"refTime":"2026-05-22T21:00:00:Z","depth":"4","parameterNumber":2,"parameterNumberName":"U-component_of_CURRENTS"},"data":[0,0,0,-0.0741,-0.0744,-0.087,-0.0871,-0.0966,-0.0966,0,0,0,0,0,0,0,0,0,0,0,-0.0701,-0.0701,-0.0741,-0.0744,-0.087,-0.0871,-0.0966,-0.0966,0,0,0,0,0,0,0,0,0,0,0,-0.07,-0.0701,-0.0702,-0.0744,-0.087,-0.0871,-0.0965,-0.0889,0,0,0,0,0,0,0,0,0,0,-0.0776,-0.0746,-0.0701,-0.0702,-0.0745,-0.087,-0.0871,-0.0887,-0.0894,-0.0886,0,-0.0905,0,-0.093,-0.097,-0.097,0,0,0,-0.0755,-0.074,-0.0769,-0.0702,-0.0746,-0.087,-0.0816,-0.0891,-0.09,-0.0895,-0.0906,-0.091,-0.0931,-0.097,-0.0971,-0.1039,-0.104,0,0,-0.0748,-0.0729,-0.0764,-0.0774,-0.0777,-0.0812,-0.082,-0.0897,-0.0906,-0.0907,-0.0913,-0.0933,-0.0971,-0.0971,-0.1039,-0.1039,0,0,0,-0.072,-0.0724,-0.0753,-0.077,-0.0794,-0.0816,-0.0825,-0.0903,-0.0912,-0.0914,-0.0934,-0.0971,-0.0972,-0.1039,-0.1039,-0.1062,0,0,0,-0.0717,-0.0707,-0.075,-0.074,-0.0793,-0.086,-0.0828,-0.0907,-0.0916,-0.0934,-0.0971,-0.0972,-0.1038,-0.1039,-0.1061,-0.1054,0,0,0,-0.0695,-0.0704,-0.0718,-0.0738,-0.0787,-0.0859,-0.0874,-0.091,-0.0927,-0.097,-0.0972,-0.1038,-0.1039,-0.1059,-0.1052,-0.1107,0,0,0,-0.0673,-0.0676,-0.0717,-0.075,-0.0786,-0.0859,-0.0874,-0.0938,-0.0978,-0.0971,-0.1038,-0.1039,-0.1059,-0.1051,-0.1106,-0.084,0,0,0,-0.0657,-0.0674,-0.0699,-0.0738,-0.0784,-0.0843,-0.0901,-0.0958,-0.0984,-0.1009,-0.1012,-0.1061,-0.1052,-0.1107,-0.089,0,0,0,0,-0.0682,-0.0693,-0.072,-0.0766,-0.0829,-0.0878,-0.0944,-0.0978,-0.104,-0.1009,-0.1071,-0.1064,-0.1099,-0.0939,-0.1043,-0.1043,-0.1043,-0.1043,-0.1043,-0.0634,-0.0682,-0.071,-0.077,-0.0821,-0.0908,-0.0955,-0.101,-0.1047,-0.1084,-0.1091,-0.1155,-0.0987,-0.1109,-0.1109,-0.1109,-0.1109,-0.1109,-0.1109,-0.0603,-0.0619,-0.0691,-0.0734,-0.0805,-0.0864,-0.096,-0.1008,-0.111,-0.1118,-0.1152,-0.0982,-0.1112,-0.1111,-0.1111,-0.1111,-0.111,-0.111,-0.111,-0.0572,-0.0571,-0.0625,-0.0687,-0.0753,-0.0846,-0.0877,-0.0996,-0.1112,-0.116,-0.1044,-0.1181,-0.1171,-0.122,-0.122,-0.122,-0.1221,-0.1221,-0.1221,-0.0495,-0.0535,-0.0571,-0.0647,-0.0683,-0.0749,-0.0864,-0.0876,-0.1025,-0.1033,-0.1201,-0.1193,-0.1189,-0.1179,-0.1224,-0.1224,-0.1223,-0.1223,-0.1223,-0.0438,-0.0469,-0.049,-0.0531,-0.0588,-0.0625,-0.0734,-0.0732,-0.0795,-0.0805,-0.0965,-0.0977,-0.0948,-0.0951,-0.0931,-0.0905,-0.0902,-0.0899,0,-0.0386,-0.0412,-0.0401,-0.0414,-0.0433,-0.0526,-0.0494,-0.0526,-0.0672,-0.0711,-0.084,-0.1026,-0.1032,-0.1001,-0.0998,-0.0973,0,0,0,-0.035,-0.0345,-0.0317,-0.0335,-0.0341,-0.0387,-0.0479,-0.0459,-0.0705,-0.0533,-0.0818,-0.0839,-0.0859,-0.1235,-0.122,-0.1216,-0.1198,0,0]},{"header":{"parameterUnit":"m.s-1","parameterCategory":2,"la1":30.2992,"la2":30.254,"lo1":-89.0895,"lo2":-89.0443,"dy":0.0025,"dx":0.0025,"nx":19,"ny":19,"refTime":"2026-05-22T21:00:00:Z","depth":"4","parameterNumber":3,"parameterNumberName":"V-component_of_CURRENTS"},"data":[0,0,0,-0.023,-0.023,-0.0194,-0.0194,-0.0102,-0.0102,0,0,0,0,0,0,0,0,0,0,0,-0.0233,-0.0233,-0.023,-0.023,-0.0194,-0.0194,-0.0102,-0.0102,0,0,0,0,0,0,0,0,0,0,0,-0.0233,-0.0233,-0.0233,-0.023,-0.0194,-0.0194,-0.0103,-0.0136,0,0,0,0,0,0,0,0,0,0,-0.0175,-0.0195,-0.0233,-0.0233,-0.023,-0.0194,-0.0194,-0.0138,-0.0134,-0.0112,0,-0.0114,0,-0.0118,-0.0096,-0.0096,0,0,0,-0.021,-0.0198,-0.0191,-0.0233,-0.023,-0.0195,-0.0205,-0.0136,-0.0131,-0.0107,-0.0113,-0.011,-0.0116,-0.0096,-0.0095,-0.0074,-0.0075,0,0,-0.0212,-0.0221,-0.0194,-0.0188,-0.0229,-0.0206,-0.0204,-0.0134,-0.0131,-0.0112,-0.0108,-0.0115,-0.0095,-0.0095,-0.0074,-0.0075,0,0,0,-0.0231,-0.0222,-0.0216,-0.0191,-0.0195,-0.0206,-0.0203,-0.0133,-0.0132,-0.0107,-0.0114,-0.0095,-0.0094,-0.0074,-0.0074,-0.0179,0,0,0,-0.0232,-0.0235,-0.0218,-0.0221,-0.0197,-0.0172,-0.0204,-0.0136,-0.0129,-0.0114,-0.0095,-0.0093,-0.0073,-0.0074,-0.0175,-0.0228,0,0,0,-0.0233,-0.0235,-0.0234,-0.0222,-0.0217,-0.0174,-0.0167,-0.0135,-0.0134,-0.0096,-0.0093,-0.0073,-0.0074,-0.0172,-0.0222,-0.0176,0,0,0,-0.0238,-0.0264,-0.0235,-0.0267,-0.0218,-0.0237,-0.0168,-0.0166,-0.0142,-0.0094,-0.0073,-0.0074,-0.0171,-0.0218,-0.0174,-0.0106,0,0,0,-0.0279,-0.0269,-0.029,-0.0265,-0.0303,-0.024,-0.0274,-0.0208,-0.0143,-0.0088,-0.0088,-0.0177,-0.0221,-0.0176,-0.0157,0,0,0,0,-0.031,-0.032,-0.0327,-0.0341,-0.034,-0.0339,-0.0283,-0.0254,-0.0204,-0.0137,-0.0165,-0.0189,-0.0157,-0.011,-0.0078,-0.0078,-0.0078,-0.0078,-0.0078,-0.0349,-0.0362,-0.04,-0.0411,-0.0422,-0.0405,-0.0396,-0.034,-0.0271,-0.0267,-0.0266,-0.0295,-0.0253,-0.025,-0.0251,-0.0251,-0.0252,-0.0252,-0.0252,-0.0402,-0.0422,-0.0445,-0.0489,-0.0499,-0.0518,-0.0491,-0.0453,-0.0401,-0.0357,-0.0318,-0.0217,-0.0262,-0.026,-0.0259,-0.0258,-0.0257,-0.0256,-0.0256,-0.0408,-0.0424,-0.0459,-0.0529,-0.0571,-0.0578,-0.0587,-0.0566,-0.0482,-0.0479,-0.0326,-0.0335,-0.033,-0.0417,-0.0417,-0.0417,-0.0417,-0.0417,-0.0417,-0.0396,-0.0435,-0.0498,-0.0562,-0.0604,-0.0634,-0.064,-0.0608,-0.0542,-0.0432,-0.0473,-0.0349,-0.0343,-0.0337,-0.0418,-0.0418,-0.0418,-0.0418,-0.0417,-0.0416,-0.0425,-0.0507,-0.0563,-0.0646,-0.065,-0.0667,-0.0567,-0.0504,-0.0409,-0.0372,-0.0374,-0.031,-0.0304,-0.0294,-0.0365,-0.0365,-0.0364,0,-0.0409,-0.0429,-0.0513,-0.059,-0.064,-0.065,-0.0565,-0.0518,-0.0429,-0.0398,-0.049,-0.0454,-0.0452,-0.0385,-0.0379,-0.037,0,0,0,-0.0429,-0.0434,-0.0493,-0.0565,-0.0626,-0.0545,-0.0531,-0.048,-0.0434,-0.038,-0.0348,-0.0353,-0.0458,-0.0421,-0.0325,-0.0318,-0.0301,0,0]}]]